Home   Weather   Salisbury   Past weeks
Flag for United Kingdom

Past Weather in Salisbury, England, United Kingdom — Yesterday and Last 2 Weeks

Now
68 °F

Overcast.


Feels Like: 68 °F
Forecast: 82 / 61 °F
Wind: 10 mph from Northwest

Location: Boscombe Down

Current Time: Jul 24, 2019 at 4:29:58 am

Latest Report: Jul 24, 2019 at 2:50 am


Visibility: N/A

Pressure: 29.86 "Hg

Humidity: 88%

Dew Point: 64 °F

Location of SalisburyLocation

Past Weather in Salisbury — Graph

°F

Salisbury Temperature Yesterday

Maximum temperature yesterday: 90 °F (at 3:50 pm)
Minimum temperature yesterday: 59 °F (at 1:50 am)
Average temperature yesterday: 76 °F

High & Low Weather Summary for the Past Weeks

 TemperatureHumidityPressure
High90 °F (Jul 23, 3:50 pm)100% (Jul 10, 5:50 am)30.21 "Hg (Jul 10, 5:50 am)
Low50 °F (Jul 16, 2:50 am)29% (Jul 23, 3:50 pm)29.68 "Hg (Jul 20, 4:50 am)
Average66 °F71%30.04 "Hg
* Reported Jul 9 2:50 am — Jul 24 2:50 am, Salisbury. Weather by CustomWeather, © 2019

Note: Actual official high and low records may vary slightly from our data, if they occured in-between our weather recording intervals... More about our weather records

Advertising

Salisbury Weather History for the Previous 24 Hours

Scroll right to see more
 ConditionsComfort  
Time TempWeatherWind HumidityBarometerVisibility
2:50 am
Wed, Jul 24
68 °FOvercast.10 mph88%29.86 "HgN/A
1:50 am68 °FPartly cloudy.8 mph94%29.83 "HgN/A
12:50 am70 °FPassing clouds.7 mph83%29.86 "HgN/A
11:50 pm
Tue, Jul 23
75 °FOvercast.10 mph57%29.83 "HgN/A
10:50 pm77 °FOvercast.9 mph54%29.86 "HgN/A
9:50 pm77 °FPartly cloudy.8 mph51%29.89 "HgN/A
8:50 pm77 °FWarm.7 mph51%29.89 "HgN/A
7:50 pm82 °FPartly sunny.9 mph42%29.92 "HgN/A
6:50 pm84 °FPartly sunny.9 mph37%29.92 "HgN/A
5:50 pm86 °FSunny.14 mph35%29.95 "Hg10 mi
5:24 pm88 °FSunny.15 mph33%29.95 "Hg10 mi
4:50 pm90 °FSunny.15 mph31%29.95 "Hg10 mi
4:23 pm90 °FSunny.18 mph31%29.98 "Hg10 mi
3:50 pm90 °FSunny.17 mph29%29.98 "Hg10 mi
3:22 pm88 °FSunny.18 mph31%29.98 "Hg10 mi
2:50 pm88 °FSunny.16 mph31%30.01 "Hg10 mi
2:21 pm88 °FSunny.17 mph35%30.01 "Hg10 mi
1:50 pm86 °FSunny.16 mph35%30.01 "Hg10 mi
1:21 pm86 °FSunny.14 mph40%30.01 "Hg10 mi
12:50 pm84 °FSunny.13 mph43%30.04 "Hg10 mi
12:20 pm82 °FSunny.12 mph48%30.04 "Hg10 mi
11:50 am82 °FSunny.10 mph48%30.04 "Hg10 mi
11:21 am79 °FSunny.10 mph54%30.07 "Hg10 mi
10:50 am79 °FSunny.12 mph61%30.07 "Hg10 mi
10:24 am75 °FSunny.8 mph65%30.07 "Hg10 mi
9:50 am72 °FSunny.8 mph78%30.07 "Hg10 mi
9:27 am68 °FSunny.7 mph88%30.07 "Hg10 mi
8:50 am66 °FScattered clouds.7 mph100%30.09 "HgN/A
8:34 am64 °FScattered clouds.6 mph100%30.09 "HgN/A
8:21 am63 °FFog.6 mph100%30.09 "Hg1 mi
7:50 am63 °FFog.6 mph94%30.09 "Hg0 mi
6:50 am59 °FFog.6 mph100%30.12 "Hg0 mi
5:50 am59 °FFog.3 mph94%30.12 "Hg0 mi
4:50 am59 °FDrizzle. Low clouds.3 mph100%30.12 "Hg0 mi
Weather by CustomWeather, © 2019

See weather overview